When you browse on this site, cookies collect data to enhance your experience and personalize the content and advertising you see.
Visit our Privacy Policy to learn more. By continuing to use the site, you agree to this use of cookies and data.
  • In Latvia
  • List of Countries
  • For 7 days
  • Water Temperature
  • Weather Map
  • Weather Widgets
  • user-avatar
    Login

    Hourly Weather Khampho

    Today, 20 September, Friday

    Time Temperature Precipitation Wind Pressure Humidity
    00:00 +25°C° 0.1 mm 1 mps 736 mmHg 93%
    01:00 +25°C° 0 mm 1 mps 736 mmHg 94%
    02:00 +24°C° 0.3 mm 1 mps 736 mmHg 94%
    03:00 +24°C° 0.3 mm 1 mps 736 mmHg 95%
    04:00 +24°C° 0.3 mm 1 mps 736 mmHg 95%
    05:00 +25°C° 0.1 mm 1 mps 736 mmHg 94%
    06:00 +25°C° 0.1 mm 1 mps 736 mmHg 92%
    07:00 +24°C° 0 mm 0 mps 737 mmHg 90%
    08:00 +28°C° 0.1 mm 1 mps 737 mmHg 81%
    09:00 +30°C° 0.1 mm 1 mps 737 mmHg 71%
    10:00 +32°C° 0.1 mm 2 mps 737 mmHg 61%
    11:00 +34°C° 0.2 mm 2 mps 736 mmHg 58%
    12:00 +35°C° 0.2 mm 2 mps 735 mmHg 55%
    13:00 +36°C° 0 mm 2 mps 735 mmHg 51%
    14:00 +35°C° 0.5 mm 2 mps 735 mmHg 54%
    15:00 +35°C° 0.5 mm 2 mps 735 mmHg 57%
    16:00 +34°C° 0.5 mm 2 mps 734 mmHg 60%
    17:00 +31°C° 0.2 mm 2 mps 734 mmHg 66%
    18:00 +29°C° 0.2 mm 2 mps 734 mmHg 72%
    19:00 +27°C° 0 mm 2 mps 735 mmHg 78%
    20:00 +26°C° 0 mm 2 mps 736 mmHg 81%
    21:00 +26°C° 0 mm 2 mps 736 mmHg 84%
    22:00 +25°C° 0 mm 1 mps 736 mmHg 87%
    23:00 +25°C° 0 mm 1 mps 736 mmHg 88%

    Tomorrow, 21 September, Saturday

    Time Temperature Precipitation Wind Pressure Humidity
    00:00 +25°C° 0 mm 1 mps 736 mmHg 90%
    01:00 +24°C° 0 mm 1 mps 736 mmHg 91%
    02:00 +24°C° 0 mm 1 mps 736 mmHg 91%
    03:00 +24°C° 0 mm 1 mps 736 mmHg 92%
    04:00 +24°C° 0 mm 1 mps 736 mmHg 92%
    05:00 +25°C° 0 mm 1 mps 736 mmHg 90%
    06:00 +25°C° 0 mm 1 mps 736 mmHg 88%
    07:00 +26°C° 0 mm 1 mps 737 mmHg 85%
    08:00 +28°C° 0 mm 2 mps 737 mmHg 77%
    09:00 +29°C° 0 mm 2 mps 737 mmHg 68%
    10:00 +31°C° 0 mm 3 mps 737 mmHg 59%
    11:00 +33°C° 0 mm 3 mps 736 mmHg 55%
    12:00 +35°C° 0 mm 3 mps 736 mmHg 51%
    13:00 +36°C° 0 mm 3 mps 736 mmHg 46%
    14:00 +35°C° 0 mm 3 mps 735 mmHg 49%
    15:00 +34°C° 0 mm 3 mps 735 mmHg 51%
    16:00 +33°C° 0 mm 4 mps 735 mmHg 54%
    17:00 +30°C° 0 mm 3 mps 735 mmHg 61%
    18:00 +28°C° 0 mm 3 mps 735 mmHg 68%
    19:00 +26°C° 0 mm 2 mps 736 mmHg 76%
    20:00 +26°C° 0 mm 2 mps 736 mmHg 79%
    21:00 +25°C° 0 mm 2 mps 737 mmHg 82%
    22:00 +25°C° 0 mm 2 mps 738 mmHg 85%
    23:00 +25°C° 0 mm 2 mps 738 mmHg 86%

    Day after tomorrow, 22 September, Sunday

    Time Temperature Precipitation Wind Pressure Humidity
    00:00 +24°C° 0 mm 2 mps 737 mmHg 87%
    01:00 +24°C° 0 mm 2 mps 737 mmHg 89%
    02:00 +24°C° 0 mm 2 mps 737 mmHg 90%
    03:00 +24°C° 0 mm 2 mps 737 mmHg 91%
    04:00 +24°C° 0 mm 2 mps 737 mmHg 91%
    05:00 +24°C° 0 mm 2 mps 737 mmHg 89%
    06:00 +25°C° 0 mm 2 mps 738 mmHg 86%
    07:00 +25°C° 0 mm 2 mps 738 mmHg 84%
    08:00 +27°C° 0 mm 3 mps 738 mmHg 74%
    09:00 +29°C° 0 mm 3 mps 739 mmHg 65%
    10:00 +32°C° 0 mm 4 mps 739 mmHg 56%
    11:00 +33°C° 0 mm 4 mps 738 mmHg 54%
    12:00 +34°C° 0 mm 4 mps 738 mmHg 52%
    13:00 +34°C° 0 mm 4 mps 738 mmHg 50%
    14:00 +33°C° 0 mm 4 mps 737 mmHg 53%
    15:00 +32°C° 0 mm 5 mps 737 mmHg 56%
    16:00 +30°C° 0 mm 5 mps 737 mmHg 59%
    17:00 +29°C° 0 mm 4 mps 737 mmHg 64%
    18:00 +27°C° 0 mm 4 mps 738 mmHg 68%
    19:00 +25°C° 0 mm 3 mps 738 mmHg 72%
    20:00 +25°C° 0 mm 3 mps 738 mmHg 73%
    21:00 +24°C° 0 mm 3 mps 739 mmHg 73%
    22:00 +24°C° 0 mm 3 mps 740 mmHg 74%
    23:00 +24°C° 0 mm 3 mps 739 mmHg 75%

    23 September, Monday

    Time Temperature Precipitation Wind Pressure Humidity
    00:00 +24°C° 0 mm 3 mps 739 mmHg 77%
    01:00 +23°C° 0 mm 2 mps 739 mmHg 78%
    02:00 +23°C° 0 mm 2 mps 739 mmHg 78%
    03:00 +23°C° 0 mm 2 mps 739 mmHg 79%
    04:00 +23°C° 0 mm 2 mps 739 mmHg 80%
    05:00 +23°C° 0 mm 2 mps 739 mmHg 79%
    06:00 +24°C° 0 mm 2 mps 740 mmHg 78%
    07:00 +24°C° 0 mm 2 mps 740 mmHg 77%
    08:00 +26°C° 0 mm 3 mps 740 mmHg 70%
    09:00 +28°C° 0 mm 3 mps 741 mmHg 62%
    10:00 +30°C° 0 mm 3 mps 741 mmHg 55%
    11:00 +32°C° 0 mm 4 mps 740 mmHg 52%
    12:00 +33°C° 0 mm 4 mps 740 mmHg 49%
    13:00 +33°C° 0 mm 4 mps 739 mmHg 46%
    14:00 +33°C° 0 mm 4 mps 739 mmHg 49%
    15:00 +32°C° 0 mm 4 mps 738 mmHg 52%
    16:00 +30°C° 0 mm 4 mps 738 mmHg 55%
    17:00 +28°C° 0 mm 4 mps 738 mmHg 61%
    18:00 +27°C° 0 mm 4 mps 739 mmHg 66%
    19:00 +25°C° 0 mm 3 mps 739 mmHg 71%
    20:00 +25°C° 0 mm 3 mps 740 mmHg 74%
    21:00 +24°C° 0 mm 3 mps 740 mmHg 77%
    22:00 +24°C° 0 mm 2 mps 740 mmHg 80%
    23:00 +23°C° 0 mm 2 mps 740 mmHg 81%

    24 September, Tuesday

    Time Temperature Precipitation Wind Pressure Humidity
    00:00 +23°C° 0 mm 2 mps 740 mmHg 82%
    01:00 +23°C° 0 mm 2 mps 740 mmHg 83%
    02:00 +23°C° 0 mm 2 mps 739 mmHg 82%
    03:00 +23°C° 0 mm 2 mps 739 mmHg 81%
    04:00 +23°C° 0 mm 2 mps 739 mmHg 80%
    05:00 +23°C° 0 mm 2 mps 739 mmHg 78%
    06:00 +24°C° 0 mm 2 mps 740 mmHg 77%
    07:00 +24°C° 0 mm 2 mps 740 mmHg 76%
    08:00 +26°C° 0 mm 3 mps 740 mmHg 68%
    09:00 +28°C° 0 mm 4 mps 741 mmHg 61%
    10:00 +30°C° 0 mm 4 mps 741 mmHg 54%
    11:00 +32°C° 0 mm 4 mps 740 mmHg 52%
    12:00 +33°C° 0 mm 4 mps 740 mmHg 50%
    13:00 +34°C° 0 mm 4 mps 739 mmHg 48%
    14:00 +33°C° 0 mm 4 mps 739 mmHg 50%
    15:00 +32°C° 0 mm 4 mps 738 mmHg 53%
    16:00 +32°C° 0 mm 4 mps 738 mmHg 55%
    17:00 +29°C° 0 mm 4 mps 738 mmHg 62%
    18:00 +27°C° 0 mm 3 mps 739 mmHg 68%
    19:00 +25°C° 0 mm 3 mps 739 mmHg 74%
    20:00 +25°C° 0 mm 3 mps 740 mmHg 77%
    21:00 +24°C° 0 mm 2 mps 740 mmHg 79%
    22:00 +24°C° 0 mm 2 mps 740 mmHg 82%
    23:00 +24°C° 0 mm 2 mps 740 mmHg 84%

    25 September, Wednesday

    Time Temperature Precipitation Wind Pressure Humidity
    00:00 +23°C° 0 mm 2 mps 740 mmHg 86%
    01:00 +23°C° 0 mm 2 mps 740 mmHg 87%
    02:00 +23°C° 0 mm 2 mps 739 mmHg 88%
    03:00 +23°C° 0 mm 2 mps 739 mmHg 88%
    04:00 +23°C° 0 mm 2 mps 739 mmHg 89%
    05:00 +24°C° 0 mm 2 mps 739 mmHg 86%
    06:00 +24°C° 0 mm 2 mps 740 mmHg 84%
    07:00 +25°C° 0 mm 2 mps 740 mmHg 81%
    08:00 +27°C° 0 mm 3 mps 740 mmHg 73%
    09:00 +29°C° 0 mm 3 mps 741 mmHg 65%
    10:00 +33°C° 0 mm 4 mps 741 mmHg 56%
    11:00 +33°C° 0 mm 4 mps 740 mmHg 54%
    12:00 +34°C° 0 mm 4 mps 740 mmHg 51%
    13:00 +35°C° 0 mm 4 mps 739 mmHg 49%
    14:00 +34°C° 0 mm 4 mps 739 mmHg 53%
    15:00 +33°C° 0 mm 4 mps 739 mmHg 56%
    16:00 +32°C° 0 mm 4 mps 738 mmHg 60%
    17:00 +29°C° 0 mm 4 mps 739 mmHg 65%
    18:00 +28°C° 0 mm 4 mps 739 mmHg 70%
    19:00 +26°C° 0 mm 3 mps 739 mmHg 75%
    20:00 +26°C° 0 mm 3 mps 740 mmHg 77%
    21:00 +25°C° 0 mm 3 mps 740 mmHg 79%
    22:00 +25°C° 0 mm 3 mps 741 mmHg 81%
    23:00 +25°C° 0 mm 3 mps 740 mmHg 83%
    Show more